GEFSCGP_500_meanwind_108.txt.gz
Wind_Speed
12 9 6 5 7 9 9 10 12 14 16 18 19 18 19 19 20 20 19 18 16 13 9 8 11 15 16 18 18 17 17 17 16 15 13 12 11 9 7 6 5 4 4 3
12 9 7 8 10 10 11 12 13 16 17 17 17 16 17 18 19 18 19 18 16 12 7 5 6 10 14 16 16 16 16 16 16 14 13 12 11 9 7 6 5 4 3 2
11 8 10 12 12 12 10 13 15 16 16 16 15 14 17 18 18 17 17 16 15 12 7 5 6 8 11 14 15 16 16 16 16 15 13 12 11 9 7 6 5 4 3 2
11 11 13 15 13 12 13 14 15 14 13 13 14 14 15 17 18 16 15 15 13 11 8 5 4 7 10 13 14 16 15 15 15 14 14 13 11 9 7 6 5 5 4 3
13 13 16 16 15 14 15 15 14 13 12 14 13 11 15 16 18 16 15 14 13 11 7 4 3 4 8 10 12 13 15 14 14 13 12 11 10 8 7 7 6 5 5 4
16 16 17 17 16 15 15 15 13 12 15 16 9 8 14 15 17 16 15 13 12 10 7 4 3 4 7 9 10 11 13 13 12 12 11 10 10 9 8 7 7 6 5 5
16 18 18 18 17 16 15 15 14 14 16 15 10 9 12 13 16 16 13 12 10 8 5 4 2 3 5 7 9 10 12 13 12 11 11 11 10 10 8 8 8 7 6 6
16 16 17 19 18 16 16 14 15 18 17 16 14 11 10 11 14 14 13 11 9 7 5 3 2 1 3 5 7 8 10 12 12 12 12 12 11 10 9 9 8 7 7 8
16 18 18 19 17 16 16 16 16 18 16 16 17 12 8 10 12 13 12 10 9 7 5 3 2 2 3 5 7 8 10 11 12 12 13 13 11 11 10 10 9 10 10 11
19 20 20 20 19 19 18 17 17 17 16 14 14 15 14 8 13 15 13 11 8 7 6 4 4 3 4 5 7 8 10 12 12 13 13 12 12 12 11 11 11 12 13 13
23 24 22 21 22 19 19 19 19 18 16 15 16 17 15 13 13 15 14 12 9 7 6 5 5 5 5 5 7 9 10 10 11 12 12 12 12 12 12 13 13 14 15 16
26 27 26 25 24 21 22 20 19 19 17 16 15 18 16 17 14 13 13 12 10 9 7 7 6 6 6 6 7 9 10 11 11 12 12 13 13 14 14 15 16 17 18 19
28 30 29 27 25 25 25 21 19 18 17 16 16 20 19 18 16 13 13 13 12 11 10 9 8 8 8 7 7 9 10 11 12 13 13 14 15 16 17 18 18 19 20 21
32 32 31 28 26 26 26 22 20 19 17 17 17 20 21 18 15 14 14 13 13 13 11 11 10 9 9 9 10 10 10 11 13 14 14 15 16 18 19 20 21 22 23 23
33 34 32 30 29 27 25 21 20 20 18 19 19 21 21 17 15 15 15 14 14 14 14 13 12 12 11 11 12 12 13 13 14 15 16 17 19 20 21 22 23 24 25 25
34 33 32 30 28 26 23 20 18 16 15 17 20 22 21 21 18 17 18 18 16 16 16 15 15 14 14 14 14 14 15 16 16 17 18 19 21 22 23 24 25 25 26 27
32 32 31 29 29 29 26 21 19 18 18 21 22 23 23 24 23 21 20 20 17 16 18 18 17 17 17 17 18 17 18 19 20 21 22 22 23 24 26 27 27 28 28 29
32 32 32 30 29 30 25 22 22 22 21 23 23 23 23 24 24 23 22 20 18 19 19 19 19 19 20 20 20 20 21 22 23 24 25 25 26 27 28 30 30 30 31 31
29 31 30 29 29 27 26 26 25 24 24 25 25 25 25 24 24 24 22 21 20 20 20 21 21 22 22 23 23 24 25 26 26 27 27 28 29 30 31 32 33 33 33 33
26 27 29 29 30 28 27 26 25 24 25 25 25 26 25 25 25 24 21 20 20 20 21 22 23 24 25 25 26 27 28 28 29 29 30 32 33 33 34 34 34 35 35 35
26 28 28 29 30 30 29 25 25 24 24 24 24 25 25 26 25 23 22 22 22 23 23 24 25 26 26 27 28 28 30 30 31 32 33 35 36 36 36 36 37 37 38 37
25 27 28 29 30 30 28 27 25 24 24 24 23 24 26 25 25 25 24 24 25 25 25 25 26 26 27 29 30 31 32 32 33 34 35 36 37 37 37 37 37 38 39 39
26 26 27 29 31 30 29 29 26 25 25 24 23 24 25 26 26 26 25 26 26 27 27 27 28 29 29 30 32 33 34 35 36 36 37 37 38 38 37 37 37 38 37 37
23 25 25 26 29 29 26 27 27 26 25 25 26 26 25 25 26 25 26 26 27 28 29 29 30 30 31 32 33 35 36 37 37 38 39 38 38 39 39 39 39 38 37 38
23 24 24 25 24 25 25 25 24 24 25 26 25 25 26 26 26 26 27 27 28 28 29 30 30 31 31 32 34 35 37 37 38 39 38 38 38 38 38 39 38 38 38 38
21 21 21 22 21 21 21 21 22 24 24 25 26 25 25 26 26 26 27 27 28 29 29 31 32 33 33 34 35 35 36 37 38 38 38 38 38 39 39 38 38 38 39 40

GEFSCGP_500_meanwind_114.txt.gz
Wind_Speed
16 14 13 13 11 10 9 9 9 9 13 16 17 16 15 15 15 16 16 16 16 15 13 12 9 6 7 9 13 16 18 19 19 18 17 15 14 14 13 10 10 10 8 7
15 13 14 14 12 11 10 9 9 10 14 17 17 16 15 15 15 15 14 13 14 15 13 11 8 5 6 7 11 15 17 18 18 17 17 16 15 14 13 11 11 10 9 7
14 15 17 16 14 11 10 10 10 12 15 17 19 18 16 14 14 14 12 11 11 12 12 9 7 3 5 7 10 13 15 17 17 17 17 15 14 14 13 12 11 11 9 8
15 17 19 18 15 12 11 11 12 15 17 18 19 20 17 15 13 11 10 10 10 9 10 8 5 2 3 6 10 12 13 15 16 17 17 16 14 14 14 13 13 12 10 9
15 18 20 19 15 12 12 12 14 16 17 18 19 20 18 15 12 9 8 8 8 8 8 8 6 3 2 6 9 10 13 13 15 16 16 16 16 16 15 14 13 12 11 10
16 19 20 19 16 14 14 15 17 18 18 19 19 19 17 15 10 8 6 6 7 7 7 7 6 4 3 5 7 9 12 13 13 14 16 17 17 16 16 15 14 12 11 10
16 18 19 19 17 16 16 16 18 19 18 19 19 18 14 12 8 6 6 5 5 6 7 6 4 3 3 5 7 9 11 12 12 13 15 16 16 16 15 15 14 13 11 10
15 16 18 19 17 15 16 17 18 19 19 18 18 16 13 10 7 5 5 4 3 4 5 5 3 2 2 4 7 9 11 12 13 13 14 15 15 15 15 15 14 13 12 11
16 15 17 19 18 17 18 19 19 20 20 19 17 15 11 9 7 4 3 2 3 3 4 4 2 2 2 4 7 9 10 11 12 14 14 14 15 15 15 15 14 13 13 12
19 18 20 20 20 19 19 19 19 20 21 20 18 15 12 10 5 4 4 2 1 1 2 2 1 1 2 3 6 8 10 11 12 13 14 14 15 15 15 15 14 14 13 13
23 22 21 23 22 21 20 20 20 21 20 21 20 16 13 10 7 5 3 1 1 1 1 1 1 1 2 3 4 7 8 9 10 12 14 14 15 15 15 15 15 15 15 14
27 26 25 25 24 23 22 22 22 22 21 20 20 19 14 12 9 7 5 4 3 2 2 2 3 3 3 3 4 5 7 8 9 11 12 14 15 16 16 15 15 16 16 16
31 31 29 27 27 26 25 23 23 23 22 20 20 19 15 13 10 9 8 7 5 4 4 4 4 5 5 5 5 6 8 9 10 11 12 14 15 15 16 17 17 17 17 17
34 35 34 31 28 28 28 26 24 24 23 21 19 18 17 14 12 10 9 9 6 4 5 5 6 6 7 7 7 7 8 10 12 13 13 14 14 15 16 18 18 19 19 19
37 36 36 34 31 29 29 29 27 26 25 23 21 20 19 17 15 13 11 9 7 6 7 7 7 8 9 9 9 9 9 11 12 13 14 14 15 16 16 18 19 20 21 22
38 37 36 35 32 32 30 29 28 27 26 26 23 21 20 19 16 13 12 11 10 9 9 9 8 9 10 10 10 11 11 12 13 14 14 15 16 17 18 19 21 22 23 24
38 39 38 37 34 33 32 30 29 28 28 27 25 22 21 19 18 15 13 12 11 10 10 11 11 12 12 12 13 14 14 14 15 16 17 17 19 20 20 22 24 24 25 26
35 37 38 37 36 35 31 31 31 30 29 28 26 23 22 20 19 17 15 13 13 12 12 12 12 14 15 15 15 16 17 17 18 19 19 20 21 23 24 25 26 27 27 28
30 34 37 37 36 35 32 31 31 30 28 26 25 24 22 20 19 17 15 14 14 14 14 14 15 15 16 17 18 18 19 19 20 21 21 22 23 25 26 27 28 29 29 29
27 29 33 34 34 34 31 30 30 29 29 27 26 24 22 22 20 18 17 16 15 15 16 16 16 16 16 18 19 20 20 21 21 22 24 25 26 28 29 29 29 28 28 30
24 26 29 31 32 32 29 28 29 30 27 26 26 25 25 23 21 20 18 17 17 17 17 17 18 18 19 20 21 22 22 23 23 24 26 28 29 29 30 30 30 29 30 31
20 22 24 27 29 30 30 28 27 27 27 26 26 25 23 23 21 21 20 19 18 19 19 20 21 21 22 22 23 24 24 25 26 27 28 29 30 30 30 32 32 33 32 33
16 18 20 24 26 26 25 25 25 25 26 25 26 25 25 24 23 22 21 20 19 19 20 21 22 22 22 23 25 26 27 28 29 29 30 31 32 33 33 34 34 34 34 33
14 16 17 21 23 23 23 24 24 24 26 26 26 25 23 22 22 21 21 20 20 19 20 22 23 24 24 25 27 28 29 30 31 32 32 32 33 33 34 35 35 36 36 36
11 13 15 17 18 18 19 20 22 23 24 24 24 23 21 21 21 22 22 22 21 21 21 22 23 24 26 27 28 28 29 30 32 33 33 34 35 35 35 35 36 37 38 38
11 12 13 13 15 17 18 18 19 20 19 17 17 19 19 19 19 20 20 21 21 22 23 23 24 24 25 26 28 29 30 31 32 33 34 34 35 36 37 38 38 38 39 40

GEFSCGP_500_meanwind_120.txt.gz
Wind_Speed
20 19 18 19 19 19 17 16 15 14 15 14 13 12 12 13 14 16 18 17 17 16 16 15 13 12 9 9 12 16 19 20 21 20 21 20 18 18 16 15 13 11 11 10
19 18 19 20 20 19 18 17 16 16 16 16 14 12 13 14 15 17 16 16 16 16 15 14 12 11 9 9 12 15 18 19 21 20 21 20 18 19 18 16 15 13 12 11
18 18 21 21 20 19 19 18 18 18 17 17 16 12 13 14 15 16 15 16 16 16 14 13 12 10 8 8 11 15 16 18 20 21 22 21 19 20 18 16 16 14 13 13
19 20 21 21 20 19 19 19 19 19 18 17 16 13 12 15 17 16 15 15 14 14 13 12 11 9 7 7 9 12 16 17 19 21 21 20 20 20 20 18 16 16 15 14
19 20 22 21 20 20 19 20 20 20 19 18 16 15 12 14 15 14 14 14 14 13 12 11 10 7 6 6 8 10 15 18 21 21 21 21 20 20 20 19 18 17 16 14
20 22 21 21 21 21 20 22 22 22 20 18 16 15 12 14 14 12 13 13 13 12 11 10 9 8 6 5 6 9 14 17 18 20 21 21 20 19 20 19 19 18 16 15
19 20 20 20 21 21 21 22 22 22 20 17 15 14 13 14 14 12 12 12 12 12 10 9 8 7 5 5 6 9 13 15 17 18 19 19 19 19 19 19 19 19 17 16
18 18 18 19 20 21 22 22 23 22 20 17 15 14 13 13 13 12 12 12 12 11 10 8 7 6 4 4 6 8 12 15 17 18 19 20 19 19 18 19 19 18 17 16
17 17 18 18 20 22 22 22 22 23 21 19 16 12 11 12 12 11 11 11 11 10 10 8 6 5 3 3 6 8 10 13 15 16 17 18 17 18 18 18 18 17 17 17
19 18 19 20 22 22 23 23 22 22 21 19 15 12 11 11 11 10 10 11 10 9 9 8 6 5 4 4 5 8 10 12 14 15 16 17 18 19 19 19 19 18 18 18
21 20 20 21 22 22 24 24 24 23 23 21 16 11 11 11 11 10 10 10 9 9 8 8 6 4 4 4 5 8 11 13 13 14 14 17 18 19 20 20 19 19 19 19
23 22 22 23 23 23 25 24 24 24 23 21 18 12 12 11 11 10 10 9 10 10 9 9 8 6 5 6 6 7 11 13 13 13 13 15 18 19 20 20 20 20 20 20
27 26 24 24 25 26 26 26 26 25 24 22 19 14 12 12 11 10 10 10 11 11 11 10 9 8 7 7 7 7 9 12 14 14 14 15 17 19 19 20 21 21 21 21
31 30 29 27 26 27 27 27 27 26 25 23 20 16 14 14 13 12 11 11 11 11 11 11 11 10 9 8 8 9 9 11 13 14 15 15 16 17 18 19 21 22 22 22
34 34 33 31 29 29 30 29 29 28 27 25 21 19 16 16 16 15 13 12 12 12 12 12 11 11 10 9 9 10 10 12 12 13 14 15 16 16 17 18 20 22 23 23
36 37 36 34 32 32 32 31 31 30 28 26 24 21 18 18 18 16 15 14 13 13 12 12 12 12 11 11 11 11 11 12 13 14 15 16 17 18 19 20 21 22 23 24
37 38 38 37 35 35 33 30 31 31 30 27 25 22 21 20 19 18 16 15 15 15 14 14 14 13 13 13 13 14 13 14 15 15 16 17 18 18 20 21 22 23 25 26
36 36 36 36 35 36 31 30 30 31 30 29 26 24 22 20 20 19 18 17 17 16 16 15 15 15 15 14 14 15 17 17 18 18 18 18 19 20 21 22 23 25 27 28
33 34 35 34 34 33 31 29 29 29 29 28 27 25 23 21 21 20 19 18 18 18 18 18 18 17 17 17 16 16 17 19 20 21 21 21 21 22 23 25 26 27 29 30
28 29 31 31 32 31 29 28 28 28 28 27 26 26 24 22 22 21 20 20 20 20 20 19 19 19 19 19 19 19 19 20 21 22 22 23 24 25 26 27 29 30 30 32
25 26 27 28 29 28 28 27 27 29 26 26 26 25 24 23 22 23 22 22 22 21 21 21 21 20 20 20 21 21 21 21 22 23 24 24 26 27 28 29 30 30 31 32
23 24 25 26 27 26 25 26 27 26 26 26 26 25 24 23 23 23 23 23 23 22 22 22 22 22 22 22 22 22 22 23 24 24 26 26 27 28 29 30 31 32 32 34
21 22 22 23 24 23 23 23 25 25 24 24 25 25 25 24 24 24 25 25 24 24 23 22 23 22 22 23 23 23 24 24 25 26 28 29 30 30 31 32 33 34 35 36
17 18 19 19 19 18 19 21 22 22 23 24 24 24 25 25 25 25 25 25 25 25 24 23 23 23 24 24 24 25 26 26 27 28 28 29 30 31 32 32 33 34 35 36
15 14 15 17 18 17 17 19 19 20 20 21 22 23 25 25 25 26 26 26 25 25 24 24 24 24 23 24 25 26 27 28 29 29 29 29 30 31 32 32 33 35 36 37
12 12 12 12 14 16 17 17 17 18 18 19 21 23 23 24 24 24 25 25 25 25 24 24 24 24 24 25 26 27 27 28 29 30 30 31 32 32 33 34 35 36 37 38

GEFSCGP_500_meanwind_126.txt.gz
Wind_Speed
19 18 17 17 16 16 16 14 14 15 14 12 11 11 14 15 16 15 15 14 14 14 15 15 15 13 12 12 13 14 16 18 21 23 24 24 23 22 21 20 18 16 14 13
19 18 18 18 17 16 15 14 14 15 14 12 11 11 14 16 17 16 15 15 15 15 14 14 14 13 11 10 11 12 15 18 20 22 23 22 23 24 22 20 18 17 16 14
19 18 19 18 17 16 15 14 15 15 13 12 12 11 14 16 16 16 16 15 14 13 12 12 12 11 10 10 11 11 12 16 20 21 22 23 22 23 22 19 18 17 16 15
20 19 19 18 17 16 15 15 15 14 12 12 12 11 13 15 16 15 15 14 12 11 11 12 11 11 11 10 10 10 11 14 18 20 21 22 23 22 22 21 20 18 17 16
19 19 18 18 17 17 17 17 16 14 13 12 13 11 11 15 15 15 14 13 11 11 11 12 11 11 10 10 9 10 12 13 16 19 20 23 23 22 22 21 20 19 18 18
20 20 19 18 18 18 17 16 15 14 14 13 13 12 10 13 14 14 13 12 11 11 11 12 11 11 9 8 7 8 11 14 17 19 19 22 22 22 22 21 20 20 20 19
19 19 19 18 17 17 16 15 15 14 14 13 15 13 11 13 13 13 13 12 11 11 11 11 11 10 9 7 6 6 9 13 17 19 20 21 22 22 22 21 21 21 20 19
18 18 19 18 16 16 16 16 16 14 14 14 15 13 12 13 12 12 12 11 10 11 10 10 10 9 8 7 5 5 8 11 15 18 20 22 22 22 22 21 20 20 20 20
17 18 19 18 18 18 17 17 16 16 15 14 13 13 13 12 12 12 11 10 10 10 9 8 8 8 7 7 6 4 7 11 14 15 17 19 21 21 21 20 20 20 20 20
18 18 19 19 19 19 19 18 18 17 15 14 13 12 12 12 12 11 11 11 10 9 9 7 6 7 7 7 6 5 5 10 14 15 17 18 20 21 21 20 21 20 20 20
20 19 19 19 19 19 20 20 19 17 17 15 13 12 14 12 12 11 10 10 9 9 7 6 6 6 7 6 5 4 5 8 11 14 17 18 18 18 18 18 19 19 20 19
21 21 20 20 20 20 20 20 20 20 19 17 15 14 16 13 12 11 10 10 8 8 7 6 6 6 7 6 4 4 4 7 9 12 15 16 16 17 17 17 18 19 19 20
24 23 21 20 21 22 22 22 22 21 21 20 17 14 16 15 13 12 11 11 9 9 8 7 6 6 6 5 4 4 5 7 9 12 14 15 16 16 17 18 18 20 20 21
25 25 23 19 19 22 23 23 23 22 22 21 19 16 17 17 15 14 13 12 11 10 9 9 8 7 6 5 5 5 6 8 9 11 13 14 16 17 18 19 19 20 20 21
27 26 25 25 25 24 23 24 24 24 23 23 21 19 19 18 17 16 15 14 13 12 11 10 9 9 8 7 6 7 7 8 9 10 12 14 16 17 18 19 20 20 21 21
29 28 27 26 26 26 26 25 25 25 25 24 23 22 21 21 20 19 17 16 15 14 13 12 11 11 10 9 9 9 8 8 10 11 12 14 15 17 18 19 20 20 21 22
30 30 29 27 28 28 28 26 26 26 25 26 26 24 24 23 22 22 20 18 17 16 15 14 14 13 12 11 11 11 11 11 11 12 13 14 15 16 18 19 20 21 22 23
29 28 29 28 29 31 28 27 27 27 26 26 26 26 26 25 24 23 22 20 19 18 17 16 15 14 13 13 13 13 13 13 13 13 14 15 16 17 18 20 21 22 23 25
28 28 29 29 29 30 30 27 27 27 27 27 27 26 26 25 25 24 23 22 21 20 19 18 17 16 15 14 15 15 15 16 16 16 16 17 18 19 21 21 23 24 25 27
26 26 27 28 28 29 29 27 26 27 28 27 27 27 26 26 26 26 24 24 23 22 20 20 19 19 18 18 18 18 18 17 17 17 18 19 20 22 24 24 25 26 28 29
25 26 26 26 27 27 27 25 25 27 27 26 27 27 27 27 27 26 26 25 23 23 22 21 21 20 20 20 20 20 20 20 20 20 19 20 21 22 23 25 26 27 29 30
24 24 25 25 25 25 23 23 24 25 26 26 27 27 28 27 26 27 27 26 25 25 24 23 22 22 22 22 22 22 22 22 22 22 22 22 23 24 25 26 27 28 29 31
23 23 24 24 24 23 22 22 23 23 25 26 26 27 27 27 27 28 28 28 27 26 25 25 25 25 24 24 24 24 24 25 25 24 24 24 25 26 27 27 29 30 30 32
21 22 22 22 22 22 21 22 22 22 23 25 26 27 28 27 27 27 28 28 28 27 27 27 27 26 26 26 26 26 25 24 24 24 25 26 27 27 28 29 30 31 32 33
18 19 20 20 20 20 20 21 21 22 23 23 24 26 28 28 27 27 28 28 28 28 29 29 28 27 27 27 27 27 27 26 27 28 28 29 29 30 30 31 32 33 33 34
17 17 17 18 18 19 19 19 19 20 21 23 24 26 27 27 27 27 28 28 28 29 29 28 29 29 29 29 29 29 28 28 28 29 30 30 31 31 31 32 32 33 34 34

GEFSCGP_500_meanwind_132.txt.gz
Wind_Speed
20 19 16 14 13 12 11 11 12 12 14 15 16 15 16 18 18 17 18 19 19 18 17 17 17 17 17 16 15 15 14 15 17 18 19 20 20 20 20 19 18 18 17 16
20 18 15 15 15 15 15 15 14 14 15 17 17 15 15 19 19 17 17 17 18 18 17 17 16 17 17 15 14 15 14 15 16 16 17 19 21 21 20 19 18 17 17 16
19 16 16 16 16 17 17 17 16 16 16 18 17 15 16 19 20 16 15 16 16 17 16 16 15 15 15 14 14 14 14 15 15 15 16 18 20 20 19 18 17 18 17 17
19 17 17 17 16 16 16 16 16 17 17 17 16 16 18 20 19 15 13 16 16 15 15 15 14 14 14 13 13 13 13 13 14 14 15 17 19 19 19 18 18 19 18 17
18 18 18 18 16 16 16 16 17 17 18 17 16 18 17 20 20 17 13 15 16 16 15 15 15 14 14 12 11 11 11 11 13 14 14 16 18 19 20 19 19 19 18 18
18 18 18 17 17 17 16 16 16 15 16 16 17 19 18 19 20 19 16 15 16 16 16 14 14 14 13 12 11 11 10 10 12 14 15 15 16 18 19 19 19 19 18 17
18 18 18 18 18 17 17 16 15 14 14 15 16 18 17 15 18 19 18 17 18 16 15 14 14 13 12 12 11 10 9 9 10 13 14 15 17 18 19 19 19 19 19 17
15 16 17 18 17 16 16 16 16 15 15 17 18 17 14 12 17 18 18 17 17 15 14 14 14 13 12 11 10 8 8 8 8 10 13 15 16 17 18 19 19 18 18 18
13 14 15 17 18 18 17 17 16 17 17 18 20 16 12 12 17 16 15 15 15 14 13 14 13 12 10 9 9 8 8 8 8 10 12 14 15 16 18 18 19 19 18 17
18 15 15 17 18 17 18 17 17 19 19 19 18 17 17 14 14 14 14 14 14 14 14 13 12 11 10 9 8 8 8 7 7 9 12 14 15 15 16 17 17 19 19 18
21 19 16 16 17 16 18 19 19 19 18 18 19 20 19 15 13 11 12 15 15 14 13 12 11 10 9 8 8 8 7 6 7 8 10 11 13 15 16 16 18 19 19 18
24 22 20 19 18 17 17 17 20 21 20 20 19 21 18 14 10 9 13 15 15 13 12 11 11 10 8 8 7 7 6 5 5 7 9 10 11 13 13 15 16 18 19 19
25 26 24 20 18 18 18 19 20 20 19 18 18 21 19 18 13 11 14 16 16 15 13 11 10 10 8 8 7 7 6 4 4 5 7 8 10 11 12 13 14 15 16 17
27 27 25 22 20 21 22 21 21 20 20 19 19 22 22 21 18 15 15 17 16 15 13 12 11 10 9 8 8 7 6 5 4 6 7 7 9 11 12 13 14 15 16 16
29 28 27 25 24 23 23 23 22 22 22 21 21 23 23 22 20 16 15 17 17 17 15 14 13 11 10 9 8 7 7 6 6 6 7 7 9 10 11 12 14 15 17 18
29 28 27 27 25 25 22 18 19 22 22 23 24 25 25 25 22 19 19 20 19 18 17 16 14 13 12 10 9 9 8 7 7 7 8 9 9 11 12 13 14 16 17 18
29 29 29 27 25 25 22 20 19 21 22 23 25 27 29 28 25 23 22 22 22 20 19 17 16 15 14 12 11 10 10 9 8 8 8 9 10 11 13 14 15 16 17 18
30 30 29 29 28 27 23 23 24 23 24 26 28 29 29 30 30 29 26 26 25 24 21 20 19 17 16 15 13 13 12 12 11 11 11 11 12 13 13 15 17 18 20 21
29 29 28 28 28 28 28 28 27 27 29 30 30 31 31 30 31 31 28 27 26 25 23 21 20 19 18 17 16 15 15 14 14 13 13 13 14 15 16 16 16 17 18 20
29 28 28 28 27 27 27 28 27 28 31 31 31 31 31 31 31 32 30 28 27 27 25 24 22 21 20 19 18 17 17 16 16 16 16 15 15 16 17 18 18 19 19 20
27 27 27 27 27 28 29 28 27 28 30 29 30 30 31 32 32 32 30 29 27 27 26 25 24 23 22 21 20 19 19 19 18 18 19 19 19 18 19 20 20 21 21 22
25 26 25 27 28 29 30 30 30 30 30 30 30 30 30 31 31 31 31 30 29 28 27 27 26 25 23 22 21 21 20 20 20 20 21 21 21 21 21 22 23 23 24 25
23 24 26 28 29 30 30 30 30 30 30 30 30 29 29 30 31 31 30 30 29 28 28 28 28 26 25 25 24 23 23 22 22 22 23 23 24 24 24 25 25 24 24 25
24 26 25 26 27 28 29 29 30 30 30 30 30 29 29 30 30 30 29 30 30 29 29 28 28 27 27 26 26 26 25 25 25 25 25 25 26 26 25 25 26 26 27 28
24 24 25 26 27 28 28 28 28 28 29 28 28 28 29 29 29 29 29 29 29 29 28 28 28 28 28 28 28 27 28 27 27 27 28 28 28 29 28 29 30 30 30 30
23 24 25 25 26 26 26 26 26 26 26 27 27 27 28 27 27 27 28 28 28 28 28 28 28 29 30 30 30 30 30 29 29 29 29 29 30 30 30 30 31 31 32 32